When you browse on this site, cookies collect data to enhance your experience and personalize the content and advertising you see.
Visit our Privacy Policy to learn more. By continuing to use the site, you agree to this use of cookies and data.
  • In Spain
  • List of Countries
  • For 7 days
  • Water Temperature
  • Weather Map
  • Weather Widgets
  • user-avatar
    Login

    Hourly Weather Ovalle

    Today, 23 January, Thursday

    Time Temperature Precipitation Wind Pressure Humidity
    00:00 +16°C° 0 mm 0 mps 738 mmHg 88%
    01:00 +15°C° 0 mm 0 mps 737 mmHg 94%
    02:00 +15°C° 0 mm 0 mps 738 mmHg 94%
    03:00 +15°C° 0 mm 0 mps 738 mmHg 95%
    04:00 +16°C° 0 mm 1 mps 738 mmHg 95%
    05:00 +18°C° 0 mm 1 mps 738 mmHg 91%
    06:00 +19°C° 0 mm 1 mps 739 mmHg 87%
    07:00 +20°C° 0 mm 1 mps 739 mmHg 83%
    08:00 +21°C° 0 mm 1 mps 739 mmHg 75%
    09:00 +23°C° 0 mm 2 mps 739 mmHg 67%
    10:00 +25°C° 0 mm 2 mps 739 mmHg 58%
    11:00 +26°C° 0 mm 3 mps 739 mmHg 53%
    12:00 +28°C° 0 mm 4 mps 739 mmHg 48%
    13:00 +29°C° 0 mm 5 mps 739 mmHg 43%
    14:00 +29°C° 0 mm 4 mps 739 mmHg 44%
    15:00 +28°C° 0 mm 4 mps 739 mmHg 45%
    16:00 +28°C° 0 mm 3 mps 738 mmHg 46%
    17:00 +26°C° 0 mm 3 mps 739 mmHg 53%
    18:00 +24°C° 0 mm 3 mps 739 mmHg 61%
    19:00 +21°C° 0 mm 2 mps 739 mmHg 68%
    20:00 +21°C° 0 mm 1 mps 739 mmHg 74%
    21:00 +20°C° 0 mm 1 mps 739 mmHg 81%
    22:00 +16°C° 0 mm 0 mps 739 mmHg 87%
    23:00 +16°C° 0 mm 0 mps 738 mmHg 86%

    Tomorrow, 24 January, Friday

    Time Temperature Precipitation Wind Pressure Humidity
    00:00 +16°C° 0 mm 0 mps 738 mmHg 86%
    01:00 +17°C° 0 mm 0 mps 738 mmHg 85%
    02:00 +16°C° 0 mm 0 mps 738 mmHg 85%
    03:00 +16°C° 0 mm 0 mps 738 mmHg 85%
    04:00 +16°C° 0 mm 0 mps 738 mmHg 85%
    05:00 +18°C° 0 mm 0 mps 738 mmHg 79%
    06:00 +21°C° 0 mm 1 mps 739 mmHg 73%
    07:00 +22°C° 0 mm 1 mps 739 mmHg 67%
    08:00 +25°C° 0 mm 1 mps 739 mmHg 59%
    09:00 +27°C° 0 mm 2 mps 739 mmHg 51%
    10:00 +29°C° 0 mm 3 mps 739 mmHg 43%
    11:00 +30°C° 0 mm 4 mps 739 mmHg 41%
    12:00 +32°C° 0 mm 5 mps 739 mmHg 38%
    13:00 +34°C° 0 mm 6 mps 739 mmHg 35%
    14:00 +33°C° 0 mm 6 mps 738 mmHg 37%
    15:00 +32°C° 0 mm 5 mps 738 mmHg 38%
    16:00 +32°C° 0 mm 5 mps 738 mmHg 39%
    17:00 +28°C° 0 mm 4 mps 738 mmHg 46%
    18:00 +26°C° 0 mm 3 mps 738 mmHg 53%
    19:00 +24°C° 0 mm 2 mps 738 mmHg 60%
    20:00 +23°C° 0 mm 1 mps 738 mmHg 65%
    21:00 +21°C° 0 mm 1 mps 739 mmHg 71%
    22:00 +18°C° 0 mm 0 mps 739 mmHg 77%
    23:00 +18°C° 0 mm 0 mps 738 mmHg 79%

    Day after tomorrow, 25 January, Saturday

    Time Temperature Precipitation Wind Pressure Humidity
    00:00 +17°C° 0 mm 0 mps 738 mmHg 81%
    01:00 +17°C° 0 mm 0 mps 738 mmHg 83%
    02:00 +17°C° 0 mm 0 mps 738 mmHg 84%
    03:00 +16°C° 0 mm 0 mps 738 mmHg 86%
    04:00 +16°C° 0 mm 0 mps 738 mmHg 88%
    05:00 +18°C° 0 mm 0 mps 738 mmHg 78%
    06:00 +20°C° 0 mm 0 mps 738 mmHg 69%
    07:00 +24°C° 0 mm 1 mps 738 mmHg 60%
    08:00 +26°C° 0 mm 2 mps 739 mmHg 54%
    09:00 +28°C° 0 mm 2 mps 739 mmHg 47%
    10:00 +30°C° 0 mm 3 mps 739 mmHg 41%
    11:00 +32°C° 0 mm 4 mps 739 mmHg 39%
    12:00 +33°C° 0 mm 5 mps 739 mmHg 36%
    13:00 +34°C° 0 mm 6 mps 738 mmHg 34%
    14:00 +33°C° 0 mm 5 mps 738 mmHg 35%
    15:00 +32°C° 0 mm 5 mps 738 mmHg 37%
    16:00 +30°C° 0 mm 4 mps 737 mmHg 38%
    17:00 +28°C° 0 mm 3 mps 738 mmHg 43%
    18:00 +26°C° 0 mm 2 mps 738 mmHg 48%
    19:00 +24°C° 0 mm 2 mps 738 mmHg 53%
    20:00 +22°C° 0 mm 1 mps 738 mmHg 59%
    21:00 +21°C° 0 mm 1 mps 738 mmHg 64%
    22:00 +18°C° 0 mm 0 mps 739 mmHg 69%
    23:00 +18°C° 0 mm 0 mps 738 mmHg 70%

    26 January, Sunday

    Time Temperature Precipitation Wind Pressure Humidity
    00:00 +18°C° 0 mm 0 mps 738 mmHg 70%
    01:00 +17°C° 0 mm 0 mps 738 mmHg 71%
    02:00 +17°C° 0 mm 0 mps 738 mmHg 73%
    03:00 +17°C° 0 mm 0 mps 738 mmHg 75%
    04:00 +16°C° 0 mm 0 mps 738 mmHg 77%
    05:00 +18°C° 0 mm 0 mps 739 mmHg 70%
    06:00 +22°C° 0 mm 1 mps 739 mmHg 63%
    07:00 +24°C° 0 mm 1 mps 739 mmHg 56%
    08:00 +26°C° 0 mm 1 mps 739 mmHg 49%
    09:00 +28°C° 0 mm 2 mps 739 mmHg 42%
    10:00 +30°C° 0 mm 3 mps 739 mmHg 35%
    11:00 +32°C° 0 mm 4 mps 739 mmHg 33%
    12:00 +33°C° 0 mm 4 mps 739 mmHg 31%
    13:00 +34°C° 0 mm 5 mps 739 mmHg 28%
    14:00 +33°C° 0 mm 5 mps 739 mmHg 29%
    15:00 +32°C° 0 mm 4 mps 739 mmHg 29%
    16:00 +30°C° 0 mm 4 mps 738 mmHg 30%
    17:00 +28°C° 0 mm 3 mps 739 mmHg 36%
    18:00 +26°C° 0 mm 2 mps 739 mmHg 42%
    19:00 +24°C° 0 mm 2 mps 739 mmHg 48%
    20:00 +22°C° 0 mm 1 mps 739 mmHg 54%
    21:00 +21°C° 0 mm 1 mps 739 mmHg 59%
    22:00 +18°C° 0 mm 0 mps 739 mmHg 65%
    23:00 +17°C° 0 mm 0 mps 738 mmHg 67%

    27 January, Monday

    Time Temperature Precipitation Wind Pressure Humidity
    00:00 +17°C° 0 mm 0 mps 738 mmHg 68%
    01:00 +17°C° 0 mm 0 mps 738 mmHg 70%
    02:00 +16°C° 0 mm 0 mps 738 mmHg 73%
    03:00 +15°C° 0 mm 0 mps 738 mmHg 76%
    04:00 +15°C° 0 mm 0 mps 738 mmHg 79%
    05:00 +19°C° 0 mm 1 mps 738 mmHg 71%
    06:00 +21°C° 0 mm 1 mps 739 mmHg 63%
    07:00 +23°C° 0 mm 1 mps 739 mmHg 55%
    08:00 +25°C° 0 mm 2 mps 739 mmHg 48%
    09:00 +27°C° 0 mm 2 mps 739 mmHg 41%
    10:00 +29°C° 0 mm 3 mps 739 mmHg 34%
    11:00 +30°C° 0 mm 4 mps 739 mmHg 32%
    12:00 +32°C° 0 mm 5 mps 739 mmHg 30%
    13:00 +33°C° 0 mm 6 mps 739 mmHg 29%
    14:00 +32°C° 0 mm 5 mps 738 mmHg 30%
    15:00 +32°C° 0 mm 4 mps 738 mmHg 32%
    16:00 +30°C° 0 mm 3 mps 738 mmHg 34%
    17:00 +28°C° 0 mm 3 mps 738 mmHg 42%
    18:00 +25°C° 0 mm 2 mps 738 mmHg 51%
    19:00 +23°C° 0 mm 1 mps 738 mmHg 60%
    20:00 +21°C° 0 mm 1 mps 738 mmHg 66%
    21:00 +20°C° 0 mm 1 mps 737 mmHg 73%
    22:00 +17°C° 0 mm 0 mps 737 mmHg 79%
    23:00 +17°C° 0 mm 0 mps 737 mmHg 80%

    28 January, Tuesday

    Time Temperature Precipitation Wind Pressure Humidity
    00:00 +16°C° 0 mm 0 mps 737 mmHg 81%
    01:00 +16°C° 0 mm 0 mps 737 mmHg 83%
    02:00 +16°C° 0 mm 0 mps 737 mmHg 84%
    03:00 +15°C° 0 mm 0 mps 737 mmHg 85%
    04:00 +16°C° 0 mm 1 mps 737 mmHg 86%
    05:00 +19°C° 0 mm 1 mps 737 mmHg 79%
    06:00 +20°C° 0 mm 1 mps 738 mmHg 72%
    07:00 +21°C° 0 mm 2 mps 738 mmHg 65%
    08:00 +24°C° 0 mm 2 mps 738 mmHg 57%
    09:00 +26°C° 0 mm 3 mps 739 mmHg 49%
    10:00 +28°C° 0 mm 3 mps 739 mmHg 41%
    11:00 +29°C° 0 mm 4 mps 739 mmHg 38%
    12:00 +32°C° 0 mm 4 mps 738 mmHg 35%
    13:00 +33°C° 0 mm 5 mps 738 mmHg 32%
    14:00 +32°C° 0 mm 5 mps 738 mmHg 33%
    15:00 +32°C° 0 mm 4 mps 738 mmHg 35%
    16:00 +30°C° 0 mm 4 mps 738 mmHg 37%
    17:00 +28°C° 0 mm 3 mps 737 mmHg 45%
    18:00 +25°C° 0 mm 2 mps 737 mmHg 53%
    19:00 +23°C° 0 mm 2 mps 737 mmHg 61%
    20:00 +21°C° 0 mm 1 mps 737 mmHg 68%
    21:00 +19°C° 0 mm 1 mps 737 mmHg 76%
    22:00 +16°C° 0 mm 0 mps 738 mmHg 83%
    23:00 +15°C° 0 mm 0 mps 737 mmHg 85%
    Show more